THOR ABLESTAR DEB, 644

Orbit data source: Space-Track

THOR ABLESTAR DEB, 644 is space debris in LEO originally from a launch on Thu, 29 Jun 1961 UTC launched from the Air Force Eastern Test Range (AFETR). Debris objects in space refer to the collection of defunct objects orbiting the Earth. Examples of debris include non-operational satellites, rocket bodies, and fragments generated from explosions, collisions, or faulty payload assembly.

Loading next visibility...
Identifier
644, 1961-015GV
Orbit
LEO
Country
Flag of USUS
Related business
Manufacturer
Unknown
Mission
Spacecraft
Bus & Motor
Unknown
Mass
Unknown
Launch date (UTC)
1961-06-29 (65 years ago)
Launch vehicle
Unknown
Launch site
Air Force Eastern Test Range (AFETR)
Object type
Payload
Rocket body
Debris
Shape & HBR
Unknown shape, 0.1 m
Radar Cross Section
Medium (>0.1 m² and <1 m²)

Expand to show TLE details & history
Last TLE update: 10 hours ago

TLE from 10 hours ago
0 THOR ABLESTAR DEB
1   644U 61015GV  26178.01818234  .00000230  00000-0  36899-3 0  9991
2   644  67.0985 273.6845 0133097 108.9655  70.2181 13.61377537199071
Epoch: 2026-06-27T00:26Z
TLE epoch observation values (Epoch: 2026-06-27T00:26:10.954Z)
Latitude
-0.67966°
Longitude
172.28614°
Altitude
1,000.643 km
Speed
7.368 km/s
True Right ascension
06h 15m 52s
True Declination
0° 40' 33"
Sunlit
Object was in daylight at epoch
Visualization orbit readout
Latitude
Unknown
Longitude
Unknown
Altitude
Unknown
Speed
Unknown
Apparent Right ascension
Unknown
Apparent Declination
Unknown
Sunlit
N/A
Visualization observer readout
Local Sidereal Time
21:46:14
Azimuth
Unknown
Elevation
Unknown
Doppler factor
Unknown
Orbital elements
Apogee altitude
1,127.66 km
Perigee altitude
930.485 km
Semi-major axis
7,407.209 km
Eccentricity
0.01331
Inclination
67.0985°
RAAN
273.6845°
Arg. of periapsis
108.9655°
True anomaly
71.66125°
Mean anomaly
70.2181°
Eccentric anomaly
70.93888°
Mean motion
3.40456 °/min
Orbital period
105.74 mins
BSTAR
0.00036899
Loading maneuver chart data...
Computing Atmospheric mass density...

Documentation

Showing up to 5 results
|